User: anonymous   Login
Location: Eindhoven
(51.4416°N, 5.4697°E)
Time: 11:16:46
(UTC+01:00)
Language:

deb Explorer IX - Orbit

View from above orbital plane
View from above orbital plane
View from above satellite
View from above satellite

Ground track
Ground track

The orbit data is extracted from the following two-line orbital elements,

1    85U 61004C   19315.69560775 +.00001051 +00000-0 +25027-3 0  9994
2    85 038.7697 056.2829 0388169 122.1140 241.7891 14.19932498899988
Epoch (UTC): 11 November 2019 16:41:40
Eccentricity: 0.0388169
inclination: 38.7697°
perigee height: 546 km
apogee height: 1105 km
right ascension of ascending node: 56.2829°
argument of perigee: 122.1140°
revolutions per day: 14.19932498
mean anomaly at epoch: 241.7891°
orbit number at epoch: 89998

The dashed part of the orbit path shows where the satellite is in the earth's shadow,  

DLR